START_TIME,STEP,MOV.,AL01,t_acc.,AL02,t_acc.,E37,t_acc.,H21,t_acc.
1979-08-05 09:00:32.900 ,0,0,6.,24.0,2.,24.0,0.,24.0,0.,24.0
1979-08-05 09:00:56.900 ,0,1,4.,24.0,2.,24.0,0.,24.0,0.,24.0
1979-08-05 09:01:20.900 ,0,0,1.,24.0,0.,24.0,0.,24.0,0.,24.0
1979-08-05 09:01:44.900 ,1,1,2.,24.0,0.,24.0,0.,24.0,0.,24.0
1979-08-05 09:02:08.900 ,1,0,2.,24.0,0.,24.0,1.,24.0,0.,24.0
1979-08-05 09:02:32.900 ,2,1,0.,24.0,1.,24.0,1.,24.0,0.,24.0
1979-08-05 09:02:56.900 ,2,0,0.,24.0,0.,24.0,0.,24.0,0.,24.0
1979-08-05 09:03:20.900 ,3,1,0.,24.0,0.,24.0,0.,24.0,0.,24.0
1979-08-05 09:03:44.900 ,3,0,0.,24.0,0.,24.0,1.,24.0,0.,24.0
1979-08-05 09:04:08.900 ,4,1,0.,24.0,0.,24.0,1.,24.0,0.,24.0
1979-08-05 09:04:32.900 ,4,0,1.,24.0,0.,24.0,0.,24.0,0.,24.0
1979-08-05 09:04:56.900 ,5,1,0.,24.0,0.,24.0,1.,24.0,0.,24.0
1979-08-05 09:05:20.900 ,5,0,0.,24.0,0.,24.0,0.,24.0,0.,24.0
1979-08-05 09:05:44.900 ,6,1,0.,24.0,0.,24.0,0.,24.0,0.,24.0
1979-08-05 09:06:08.900 ,6,0,1.,24.0,0.,24.0,0.,24.0,0.,24.0
1979-08-05 09:06:32.900 ,7,0,,0,,0,,0,,0
1979-08-05 09:06:56.900 ,7,0,22.,24.0,0.,24.0,1.,24.0,0.,24.0
1979-08-05 09:07:20.900 ,5,1,16.,24.0,0.,24.0,0.,24.0,0.,24.0
1979-08-05 09:07:44.900 ,1,1,0.,24.0,0.,24.0,4.,24.0,0.,24.0
1979-08-05 09:08:08.900 ,2,1,1.,24.0,0.,24.0,0.,24.0,0.,24.0
1979-08-05 09:08:32.900 ,6,1,1.,24.0,0.,24.0,0.,24.0,0.,24.0
1979-08-05 09:08:56.900 ,5,1,13.,24.0,0.,24.0,0.,24.0,0.,24.0
1979-08-05 09:09:20.900 ,1,1,1.,24.0,0.,24.0,0.,24.0,0.,24.0
1979-08-05 09:09:44.900 ,2,1,0.,24.0,0.,24.0,0.,24.0,0.,24.0
1979-08-05 09:10:08.900 ,6,1,0.,24.0,0.,24.0,3.,24.0,0.,24.0
1979-08-05 09:10:32.900 ,5,1,15.,24.0,0.,24.0,2.,24.0,0.,24.0
1979-08-05 09:10:56.900 ,1,1,0.,24.0,1.,24.0,3.,24.0,0.,24.0
1979-08-05 09:11:20.900 ,2,1,0.,24.0,1.,24.0,0.,24.0,0.,24.0
1979-08-05 09:11:44.900 ,6,1,0.,24.0,0.,24.0,0.,24.0,0.,24.0
1979-08-05 09:12:08.900 ,5,1,21.,24.0,0.,24.0,0.,24.0,0.,24.0
1979-08-05 09:12:32.900 ,1,1,1.,24.0,0.,24.0,1.,24.0,0.,24.0
1979-08-05 09:12:56.900 ,2,1,1.,24.0,0.,24.0,1.,24.0,0.,24.0
1979-08-05 09:13:20.900 ,6,1,0.,24.0,0.,24.0,0.,24.0,0.,24.0
1979-08-05 09:13:44.900 ,5,1,15.,24.0,0.,24.0,0.,24.0,0.,24.0
1979-08-05 09:14:08.900 ,1,1,0.,24.0,0.,24.0,0.,24.0,0.,24.0
1979-08-05 09:14:32.900 ,2,1,0.,24.0,0.,24.0,1.,24.0,0.,24.0
1979-08-05 09:14:56.900 ,6,1,0.,24.0,0.,24.0,1.,24.0,0.,24.0
1979-08-05 09:15:20.900 ,5,1,10.,24.0,0.,24.0,0.,24.0,0.,24.0
1979-08-05 09:15:44.900 ,1,1,0.,24.0,1.,24.0,0.,24.0,0.,24.0
1979-08-05 09:16:08.900 ,2,1,0.,24.0,0.,24.0,0.,24.0,0.,24.0
1979-08-05 09:16:32.900 ,6,1,0.,24.0,0.,24.0,1.,24.0,0.,24.0
1979-08-05 09:16:56.900 ,5,1,20.,24.0,0.,24.0,0.,24.0,0.,24.0
1979-08-05 09:17:20.900 ,1,1,0.,24.0,0.,24.0,1.,24.0,0.,24.0
1979-08-05 09:17:44.900 ,0,0,0.,24.0,0.,24.0,0.,24.0,0.,24.0
1979-08-05 09:18:08.900 ,0,0,0.,24.0,0.,24.0,0.,24.0,0.,24.0
1979-08-05 09:18:32.900 ,5,1,14.,24.0,0.,24.0,0.,24.0,0.,24.0
1979-08-05 09:18:56.900 ,5,0,0.,24.0,0.,24.0,0.,24.0,0.,24.0
1979-08-05 09:19:20.900 ,4,1,0.,24.0,0.,24.0,0.,24.0,0.,24.0
1979-08-05 09:19:44.900 ,4,0,0.,24.0,0.,24.0,0.,24.0,0.,24.0
1979-08-05 09:20:08.900 ,3,1,0.,24.0,0.,24.0,0.,24.0,0.,24.0
1979-08-05 09:20:32.900 ,3,0,0.,24.0,0.,24.0,0.,24.0,0.,24.0
1979-08-05 09:20:56.900 ,2,1,0.,24.0,0.,24.0,2.,24.0,0.,24.0
1979-08-05 09:21:20.900 ,2,0,0.,24.0,0.,24.0,0.,24.0,0.,24.0
1979-08-05 09:21:44.900 ,1,1,0.,24.0,0.,24.0,1.,24.0,0.,24.0
1979-08-05 09:22:08.900 ,1,0,0.,24.0,0.,24.0,0.,24.0,0.,24.0
1979-08-05 09:22:32.900 ,0,1,1.,24.0,0.,24.0,1.,24.0,0.,24.0
1979-08-05 09:22:56.900 ,0,0,0.,24.0,0.,24.0,0.,24.0,0.,24.0
1979-08-05 09:23:20.900 ,0,1,0.,24.0,0.,24.0,0.,24.0,0.,24.0
1979-08-05 09:23:44.900 ,0,0,0.,24.0,0.,24.0,0.,24.0,0.,24.0
1979-08-05 09:24:08.900 ,1,1,0.,24.0,1.,24.0,1.,24.0,0.,24.0
1979-08-05 09:24:32.900 ,1,0,0.,24.0,0.,24.0,0.,24.0,0.,24.0
1979-08-05 09:24:56.900 ,2,1,0.,24.0,0.,24.0,1.,24.0,0.,24.0
1979-08-05 09:25:20.900 ,2,0,0.,24.0,0.,24.0,0.,24.0,0.,24.0
1979-08-05 09:25:44.900 ,3,1,0.,24.0,0.,24.0,0.,24.0,0.,24.0
1979-08-05 09:26:08.900 ,3,0,0.,24.0,0.,24.0,1.,24.0,0.,24.0
1979-08-05 09:26:32.900 ,4,1,0.,24.0,0.,24.0,0.,24.0,0.,24.0
1979-08-05 09:26:56.900 ,4,0,0.,24.0,0.,24.0,0.,24.0,0.,24.0
1979-08-05 09:27:20.900 ,5,1,0.,24.0,0.,24.0,1.,24.0,0.,24.0
1979-08-05 09:27:44.900 ,5,0,0.,24.0,0.,24.0,0.,24.0,0.,24.0
1979-08-05 09:28:08.900 ,6,1,0.,24.0,0.,24.0,0.,24.0,0.,24.0
1979-08-05 09:28:32.900 ,6,0,0.,24.0,0.,24.0,0.,24.0,0.,24.0
1979-08-05 09:28:56.900 ,7,1,8.,24.0,1.,24.0,0.,24.0,0.,24.0
1979-08-05 09:29:20.900 ,7,0,34.,24.0,0.,24.0,0.,24.0,0.,24.0
1979-08-05 09:29:44.900 ,7,1,26.,24.0,0.,24.0,1.,24.0,0.,24.0
1979-08-05 09:30:08.900 ,7,0,23.,24.0,0.,24.0,1.,24.0,0.,24.0
1979-08-05 09:30:32.900 ,6,1,23.,24.0,1.,24.0,0.,24.0,0.,24.0
1979-08-05 09:30:56.900 ,6,0,0.,24.0,0.,24.0,0.,24.0,0.,24.0
1979-08-05 09:31:20.900 ,5,1,0.,24.0,0.,24.0,0.,24.0,0.,24.0
1979-08-05 09:31:44.900 ,5,0,0.,24.0,0.,24.0,0.,24.0,0.,24.0
1979-08-05 09:32:08.900 ,4,1,0.,24.0,0.,24.0,1.,24.0,0.,24.0
1979-08-05 09:32:32.900 ,4,0,0.,24.0,0.,24.0,1.,24.0,0.,24.0
1979-08-05 09:32:56.900 ,3,1,0.,24.0,0.,24.0,0.,24.0,0.,24.0
1979-08-05 09:33:20.900 ,3,0,0.,24.0,0.,24.0,0.,24.0,0.,24.0
1979-08-05 09:33:44.900 ,2,1,0.,24.0,0.,24.0,0.,24.0,0.,24.0
1979-08-05 09:34:08.900 ,2,0,0.,24.0,0.,24.0,1.,24.0,0.,24.0
1979-08-05 09:34:32.900 ,1,1,0.,24.0,0.,24.0,0.,24.0,0.,24.0
1979-08-05 09:34:56.900 ,1,0,0.,24.0,0.,24.0,0.,24.0,0.,24.0
1979-08-05 09:35:20.900 ,0,1,1.,24.0,0.,24.0,1.,24.0,0.,24.0
1979-08-05 09:35:44.900 ,0,0,1.,24.0,0.,24.0,0.,24.0,0.,24.0
1979-08-05 09:36:08.900 ,0,1,1.,24.0,0.,24.0,0.,24.0,0.,24.0
1979-08-05 09:36:32.900 ,0,0,0.,24.0,0.,24.0,0.,24.0,0.,24.0
1979-08-05 09:36:56.900 ,1,1,1.,24.0,0.,24.0,0.,24.0,0.,24.0
1979-08-05 09:37:20.900 ,1,0,0.,24.0,0.,24.0,0.,24.0,0.,24.0
1979-08-05 09:37:44.900 ,2,1,0.,24.0,0.,24.0,0.,24.0,0.,24.0
1979-08-05 09:38:08.900 ,2,0,0.,24.0,0.,24.0,0.,24.0,0.,24.0
1979-08-05 09:38:32.900 ,3,1,0.,24.0,0.,24.0,1.,24.0,0.,24.0
1979-08-05 09:38:56.900 ,3,0,0.,24.0,0.,24.0,1.,24.0,0.,24.0
1979-08-05 09:39:20.900 ,4,1,0.,24.0,0.,24.0,1.,24.0,0.,24.0
1979-08-05 09:39:44.900 ,4,0,0.,24.0,0.,24.0,0.,24.0,0.,24.0
1979-08-05 09:40:08.900 ,5,1,0.,24.0,0.,24.0,0.,24.0,0.,24.0
1979-08-05 09:40:32.900 ,5,0,1.,24.0,0.,24.0,0.,24.0,0.,24.0
1979-08-05 09:40:56.900 ,6,1,1.,24.0,0.,24.0,0.,24.0,0.,24.0
1979-08-05 09:41:20.900 ,6,0,0.,24.0,0.,24.0,0.,24.0,0.,24.0
1979-08-05 09:41:44.900 ,7,1,7.,24.0,0.,24.0,1.,24.0,0.,24.0
1979-08-05 09:42:08.900 ,7,0,31.,24.0,0.,24.0,0.,24.0,0.,24.0
1979-08-05 09:42:32.900 ,7,1,32.,24.0,0.,24.0,0.,24.0,0.,24.0
1979-08-05 09:42:56.900 ,7,0,39.,24.0,0.,24.0,0.,24.0,0.,24.0
1979-08-05 09:43:20.900 ,6,1,14.,24.0,0.,24.0,2.,24.0,0.,24.0
1979-08-05 09:43:44.900 ,6,0,0.,24.0,0.,24.0,0.,24.0,0.,24.0
1979-08-05 09:44:08.900 ,5,1,0.,24.0,0.,24.0,0.,24.0,0.,24.0
1979-08-05 09:44:32.900 ,5,0,0.,24.0,0.,24.0,0.,24.0,0.,24.0
1979-08-05 09:44:56.900 ,4,1,0.,24.0,0.,24.0,0.,24.0,0.,24.0
1979-08-05 09:45:20.900 ,4,0,0.,24.0,0.,24.0,0.,24.0,0.,24.0
1979-08-05 09:45:44.900 ,0,0,0.,24.0,1.,24.0,0.,24.0,0.,24.0
1979-08-05 09:46:08.900 ,0,0,0.,24.0,0.,24.0,0.,24.0,0.,24.0
1979-08-05 09:46:32.900 ,2,1,0.,24.0,0.,24.0,0.,24.0,0.,24.0
1979-08-05 09:46:56.900 ,2,0,0.,24.0,0.,24.0,0.,24.0,0.,24.0
1979-08-05 09:47:20.900 ,1,1,0.,24.0,1.,24.0,0.,24.0,0.,24.0
1979-08-05 09:47:44.900 ,1,0,0.,24.0,0.,24.0,0.,24.0,0.,24.0
1979-08-05 09:48:08.900 ,0,1,0.,24.0,0.,24.0,1.,24.0,0.,24.0
1979-08-05 09:48:32.900 ,0,0,0.,24.0,0.,24.0,0.,24.0,0.,24.0
1979-08-05 09:48:56.900 ,0,1,0.,24.0,0.,24.0,1.,24.0,0.,24.0
1979-08-05 09:49:20.900 ,0,0,0.,24.0,0.,24.0,0.,24.0,0.,24.0
1979-08-05 09:49:44.900 ,1,1,0.,24.0,1.,24.0,0.,24.0,0.,24.0
1979-08-05 09:50:08.900 ,1,0,2.,24.0,0.,24.0,0.,24.0,0.,24.0
1979-08-05 09:50:32.900 ,2,1,1.,24.0,0.,24.0,0.,24.0,0.,24.0
1979-08-05 09:50:56.900 ,2,0,0.,24.0,0.,24.0,0.,24.0,0.,24.0
1979-08-05 09:51:20.900 ,3,1,0.,24.0,0.,24.0,0.,24.0,0.,24.0
1979-08-05 09:51:44.900 ,3,0,0.,24.0,0.,24.0,0.,24.0,0.,24.0
1979-08-05 09:52:08.900 ,4,1,0.,24.0,0.,24.0,0.,24.0,0.,24.0
1979-08-05 09:52:32.900 ,4,0,0.,24.0,0.,24.0,0.,24.0,0.,24.0
1979-08-05 09:52:56.900 ,5,1,0.,24.0,0.,24.0,0.,24.0,0.,24.0
1979-08-05 09:53:20.900 ,5,0,0.,24.0,0.,24.0,1.,24.0,0.,24.0
1979-08-05 09:53:44.900 ,6,1,0.,24.0,0.,24.0,0.,24.0,0.,24.0
1979-08-05 09:54:08.900 ,6,0,0.,24.0,0.,24.0,0.,24.0,0.,24.0
1979-08-05 09:54:32.900 ,7,0,8.,24.0,0.,24.0,1.,24.0,0.,24.0
1979-08-05 09:54:56.900 ,7,0,35.,24.0,0.,24.0,0.,24.0,0.,24.0
1979-08-05 09:55:20.900 ,5,1,16.,24.0,0.,24.0,0.,24.0,0.,24.0
1979-08-05 09:55:44.900 ,1,1,0.,24.0,0.,24.0,0.,24.0,0.,24.0
1979-08-05 09:56:08.900 ,2,1,0.,24.0,0.,24.0,0.,24.0,0.,24.0
1979-08-05 09:56:32.900 ,6,1,0.,24.0,0.,24.0,0.,24.0,0.,24.0
1979-08-05 09:56:56.900 ,5,1,15.,24.0,0.,24.0,0.,24.0,0.,24.0
1979-08-05 09:57:20.900 ,1,1,0.,24.0,1.,24.0,0.,24.0,0.,24.0
1979-08-05 09:57:44.900 ,2,1,0.,24.0,0.,24.0,0.,24.0,0.,24.0
1979-08-05 09:58:08.900 ,6,1,0.,24.0,1.,24.0,1.,24.0,0.,24.0
1979-08-05 09:58:32.900 ,5,1,11.,24.0,0.,24.0,0.,24.0,0.,24.0
1979-08-05 09:58:56.900 ,1,1,0.,24.0,0.,24.0,0.,24.0,0.,24.0
1979-08-05 09:59:20.900 ,2,1,0.,24.0,0.,24.0,0.,24.0,0.,24.0
1979-08-05 09:59:44.900 ,6,1,0.,24.0,0.,24.0,1.,24.0,0.,24.0
1979-08-05 10:00:08.900 ,5,1,13.,24.0,0.,24.0,0.,24.0,0.,24.0
1979-08-05 10:00:32.900 ,1,1,0.,24.0,1.,24.0,0.,24.0,0.,24.0
1979-08-05 10:00:56.900 ,2,1,0.,24.0,0.,24.0,0.,24.0,0.,24.0
1979-08-05 10:01:20.900 ,6,1,0.,24.0,0.,24.0,0.,24.0,0.,24.0
1979-08-05 10:01:44.900 ,5,1,12.,24.0,0.,24.0,1.,24.0,0.,24.0
1979-08-05 10:02:08.900 ,1,1,0.,24.0,0.,24.0,1.,24.0,0.,24.0
1979-08-05 10:02:32.900 ,2,1,0.,24.0,0.,24.0,0.,24.0,0.,24.0
1979-08-05 10:02:56.900 ,6,1,0.,24.0,0.,24.0,1.,24.0,0.,24.0
1979-08-05 10:03:20.900 ,5,1,15.,24.0,0.,24.0,0.,24.0,0.,24.0
1979-08-05 10:03:44.900 ,1,1,2.,24.0,0.,24.0,0.,24.0,0.,24.0
1979-08-05 10:04:08.900 ,2,1,0.,24.0,0.,24.0,1.,24.0,0.,24.0
1979-08-05 10:04:32.900 ,6,1,0.,24.0,0.,24.0,0.,24.0,0.,24.0
1979-08-05 10:04:56.900 ,5,1,17.,24.0,0.,24.0,0.,24.0,0.,24.0
1979-08-05 10:05:20.900 ,1,1,0.,24.0,0.,24.0,0.,24.0,0.,24.0
1979-08-05 10:05:44.900 ,0,0,0.,24.0,0.,24.0,0.,24.0,0.,24.0
1979-08-05 10:06:08.900 ,0,0,0.,24.0,0.,24.0,0.,24.0,0.,24.0
1979-08-05 10:06:32.900 ,5,1,13.,24.0,0.,24.0,0.,24.0,0.,24.0
1979-08-05 10:06:56.900 ,5,0,0.,24.0,0.,24.0,0.,24.0,0.,24.0
1979-08-05 10:07:20.900 ,4,1,0.,24.0,0.,24.0,1.,24.0,0.,24.0
1979-08-05 10:07:44.900 ,4,0,0.,24.0,0.,24.0,0.,24.0,0.,24.0
1979-08-05 10:08:08.900 ,3,1,0.,24.0,0.,24.0,0.,24.0,0.,24.0
1979-08-05 10:08:32.900 ,3,0,0.,24.0,0.,24.0,1.,24.0,0.,24.0
1979-08-05 10:08:56.900 ,2,1,0.,24.0,0.,24.0,0.,24.0,0.,24.0
1979-08-05 10:09:20.900 ,2,0,0.,24.0,0.,24.0,0.,24.0,0.,24.0
1979-08-05 10:09:44.900 ,1,1,0.,24.0,0.,24.0,1.,24.0,0.,24.0
1979-08-05 10:10:08.900 ,1,0,0.,24.0,0.,24.0,0.,24.0,0.,24.0
1979-08-05 10:10:32.900 ,0,0,1.,24.0,0.,24.0,0.,24.0,0.,24.0
1979-08-05 10:10:56.900 ,0,0,0.,24.0,0.,24.0,1.,24.0,0.,24.0
1979-08-05 10:11:20.900 ,0,1,0.,24.0,0.,24.0,1.,24.0,0.,24.0
1979-08-05 10:11:44.900 ,0,0,0.,24.0,0.,24.0,0.,24.0,0.,24.0
1979-08-05 10:12:08.900 ,1,1,0.,24.0,1.,24.0,1.,24.0,0.,24.0
1979-08-05 10:12:32.900 ,1,0,0.,24.0,0.,24.0,0.,24.0,0.,24.0
1979-08-05 10:12:56.900 ,2,1,0.,24.0,0.,24.0,0.,24.0,0.,24.0
1979-08-05 10:13:20.900 ,2,0,0.,24.0,0.,24.0,0.,24.0,0.,24.0
1979-08-05 10:13:44.900 ,3,1,0.,24.0,0.,24.0,2.,24.0,0.,24.0
1979-08-05 10:14:08.900 ,3,0,0.,24.0,0.,24.0,0.,24.0,0.,24.0
1979-08-05 10:14:32.900 ,4,1,0.,24.0,0.,24.0,1.,24.0,0.,24.0
1979-08-05 10:14:56.900 ,4,0,0.,24.0,0.,24.0,0.,24.0,0.,24.0
1979-08-05 10:15:20.900 ,5,1,0.,24.0,1.,24.0,1.,24.0,0.,24.0
1979-08-05 10:15:44.900 ,5,0,0.,24.0,0.,24.0,2.,24.0,0.,24.0
1979-08-05 10:16:08.900 ,6,1,0.,24.0,0.,24.0,0.,24.0,0.,24.0
1979-08-05 10:16:32.900 ,6,0,0.,24.0,0.,24.0,2.,24.0,0.,24.0
1979-08-05 10:16:56.900 ,7,1,6.,24.0,0.,24.0,0.,24.0,0.,24.0
1979-08-05 10:17:20.900 ,7,0,28.,24.0,0.,24.0,0.,24.0,0.,24.0
1979-08-05 10:17:44.900 ,7,1,33.,24.0,0.,24.0,0.,24.0,0.,24.0
1979-08-05 10:18:08.900 ,7,0,32.,24.0,0.,24.0,3.,24.0,0.,24.0
1979-08-05 10:18:32.900 ,6,1,27.,24.0,1.,24.0,1.,24.0,0.,24.0
1979-08-05 10:18:56.900 ,6,0,0.,24.0,0.,24.0,1.,24.0,0.,24.0
1979-08-05 10:19:20.900 ,5,1,0.,24.0,0.,24.0,0.,24.0,0.,24.0
1979-08-05 10:19:44.900 ,5,0,0.,24.0,0.,24.0,0.,24.0,0.,24.0
1979-08-05 10:20:08.900 ,4,1,0.,24.0,0.,24.0,0.,24.0,0.,24.0
1979-08-05 10:20:32.900 ,4,0,0.,24.0,0.,24.0,0.,24.0,0.,24.0
1979-08-05 10:20:56.900 ,3,1,0.,24.0,0.,24.0,0.,24.0,0.,24.0
1979-08-05 10:21:20.900 ,3,0,0.,24.0,0.,24.0,0.,24.0,0.,24.0
1979-08-05 10:21:44.900 ,2,1,0.,24.0,0.,24.0,0.,24.0,0.,24.0
1979-08-05 10:22:08.900 ,2,0,1.,24.0,0.,24.0,0.,24.0,0.,24.0
1979-08-05 10:22:32.900 ,1,1,0.,24.0,0.,24.0,1.,24.0,0.,24.0
1979-08-05 10:22:56.900 ,1,0,0.,24.0,0.,24.0,1.,24.0,0.,24.0
1979-08-05 10:23:20.900 ,0,1,0.,24.0,0.,24.0,1.,24.0,0.,24.0
1979-08-05 10:23:44.900 ,0,0,0.,24.0,0.,24.0,0.,24.0,0.,24.0
1979-08-05 10:24:08.900 ,0,1,0.,24.0,0.,24.0,0.,24.0,0.,24.0
1979-08-05 10:24:32.900 ,0,0,1.,24.0,1.,24.0,0.,24.0,0.,24.0
1979-08-05 10:24:56.900 ,1,1,0.,24.0,0.,24.0,1.,24.0,0.,24.0
1979-08-05 10:25:20.900 ,1,0,0.,24.0,0.,24.0,0.,24.0,0.,24.0
1979-08-05 10:25:44.900 ,2,1,0.,24.0,0.,24.0,1.,24.0,0.,24.0
1979-08-05 10:26:08.900 ,2,0,0.,24.0,0.,24.0,0.,24.0,0.,24.0
1979-08-05 10:26:32.900 ,3,1,0.,24.0,0.,24.0,0.,24.0,0.,24.0
1979-08-05 10:26:56.900 ,3,0,0.,24.0,0.,24.0,0.,24.0,0.,24.0
1979-08-05 10:27:20.900 ,4,1,0.,24.0,0.,24.0,0.,24.0,0.,24.0
1979-08-05 10:27:44.900 ,4,0,0.,24.0,0.,24.0,0.,24.0,0.,24.0
1979-08-05 10:28:08.900 ,5,1,1.,24.0,0.,24.0,1.,24.0,0.,24.0
1979-08-05 10:28:32.900 ,5,0,0.,24.0,0.,24.0,1.,24.0,0.,24.0
1979-08-05 10:28:56.900 ,6,1,0.,24.0,0.,24.0,0.,24.0,0.,24.0
1979-08-05 10:29:20.900 ,6,0,0.,24.0,0.,24.0,0.,24.0,0.,24.0
1979-08-05 10:29:44.900 ,7,1,3.,24.0,0.,24.0,0.,24.0,0.,24.0
1979-08-05 10:30:08.900 ,7,0,28.,24.0,0.,24.0,1.,24.0,0.,24.0
1979-08-05 10:30:32.900 ,7,1,27.,24.0,0.,24.0,1.,24.0,0.,24.0
1979-08-05 10:30:56.900 ,7,0,28.,24.0,0.,24.0,0.,24.0,0.,24.0
1979-08-05 10:31:20.900 ,6,1,27.,24.0,1.,24.0,1.,24.0,0.,24.0
1979-08-05 10:31:44.900 ,6,0,0.,24.0,0.,24.0,1.,24.0,0.,24.0
1979-08-05 10:32:08.900 ,5,1,0.,24.0,0.,24.0,0.,24.0,0.,24.0
1979-08-05 10:32:32.900 ,5,0,0.,24.0,0.,24.0,0.,24.0,0.,24.0
1979-08-05 10:32:56.900 ,4,1,0.,24.0,0.,24.0,1.,24.0,0.,24.0
1979-08-05 10:33:20.900 ,4,0,1.,24.0,0.,24.0,0.,24.0,0.,24.0
1979-08-05 10:33:44.900 ,3,1,1.,24.0,0.,24.0,0.,24.0,0.,24.0
1979-08-05 10:34:08.900 ,3,0,1.,24.0,0.,24.0,1.,24.0,0.,24.0
1979-08-05 10:34:32.900 ,2,1,0.,24.0,0.,24.0,1.,24.0,0.,24.0
1979-08-05 10:34:56.900 ,2,0,0.,24.0,0.,24.0,0.,24.0,0.,24.0
1979-08-05 10:35:20.900 ,1,1,0.,24.0,0.,24.0,0.,24.0,0.,24.0
1979-08-05 10:35:44.900 ,1,0,0.,24.0,0.,24.0,0.,24.0,0.,24.0
1979-08-05 10:36:08.900 ,0,1,0.,24.0,0.,24.0,2.,24.0,0.,24.0
1979-08-05 10:36:32.900 ,0,0,0.,24.0,0.,24.0,0.,24.0,0.,24.0
1979-08-05 10:36:56.900 ,0,1,0.,24.0,0.,24.0,0.,24.0,0.,24.0
1979-08-05 10:37:20.900 ,0,0,0.,24.0,0.,24.0,0.,24.0,0.,24.0
1979-08-05 10:37:44.900 ,1,1,0.,24.0,0.,24.0,2.,24.0,0.,24.0
1979-08-05 10:38:08.900 ,1,0,0.,24.0,0.,24.0,0.,24.0,0.,24.0
1979-08-05 10:38:32.900 ,2,1,0.,24.0,0.,24.0,0.,24.0,0.,24.0
1979-08-05 10:38:56.900 ,2,0,0.,24.0,0.,24.0,0.,24.0,0.,24.0
1979-08-05 10:39:20.900 ,3,1,0.,24.0,0.,24.0,0.,24.0,0.,24.0
1979-08-05 10:39:44.900 ,3,0,0.,24.0,0.,24.0,0.,24.0,0.,24.0
1979-08-05 10:40:08.900 ,4,1,0.,24.0,0.,24.0,1.,24.0,0.,24.0
1979-08-05 10:40:32.900 ,4,0,0.,24.0,0.,24.0,0.,24.0,0.,24.0
1979-08-05 10:40:56.900 ,5,1,0.,24.0,0.,24.0,1.,24.0,0.,24.0
1979-08-05 10:41:20.900 ,5,0,1.,24.0,0.,24.0,1.,24.0,0.,24.0
1979-08-05 10:41:44.900 ,6,1,0.,24.0,0.,24.0,0.,24.0,0.,24.0
1979-08-05 10:42:08.900 ,6,0,0.,24.0,0.,24.0,0.,24.0,0.,24.0
1979-08-05 10:42:32.900 ,7,0,5.,24.0,0.,24.0,0.,24.0,0.,24.0
1979-08-05 10:42:56.900 ,7,0,39.,24.0,0.,24.0,0.,24.0,0.,24.0
1979-08-05 10:43:20.900 ,5,1,15.,24.0,0.,24.0,0.,24.0,0.,24.0
1979-08-05 10:43:44.900 ,1,1,0.,24.0,0.,24.0,0.,24.0,0.,24.0
1979-08-05 10:44:08.900 ,2,1,0.,24.0,0.,24.0,0.,24.0,0.,24.0
1979-08-05 10:44:32.900 ,6,1,0.,24.0,0.,24.0,0.,24.0,0.,24.0
1979-08-05 10:44:56.900 ,5,1,12.,24.0,0.,24.0,1.,24.0,0.,24.0
1979-08-05 10:45:20.900 ,1,1,0.,24.0,0.,24.0,0.,24.0,0.,24.0
1979-08-05 10:45:44.900 ,2,1,0.,24.0,0.,24.0,1.,24.0,0.,24.0
1979-08-05 10:46:08.900 ,6,1,0.,24.0,0.,24.0,1.,24.0,0.,24.0
1979-08-05 10:46:32.900 ,5,1,13.,24.0,1.,24.0,2.,24.0,0.,24.0
1979-08-05 10:46:56.900 ,1,1,0.,24.0,0.,24.0,0.,24.0,0.,24.0
1979-08-05 10:47:20.900 ,2,1,0.,24.0,0.,24.0,1.,24.0,0.,24.0
1979-08-05 10:47:44.900 ,6,1,0.,24.0,0.,24.0,0.,24.0,0.,24.0
1979-08-05 10:48:08.900 ,5,1,9.,24.0,0.,24.0,0.,24.0,0.,24.0
1979-08-05 10:48:32.900 ,1,1,0.,24.0,0.,24.0,0.,24.0,0.,24.0
1979-08-05 10:48:56.900 ,2,1,0.,24.0,0.,24.0,1.,24.0,0.,24.0
1979-08-05 10:49:20.900 ,6,1,0.,24.0,0.,24.0,0.,24.0,0.,24.0
1979-08-05 10:49:44.900 ,5,1,11.,24.0,0.,24.0,0.,24.0,0.,24.0
1979-08-05 10:50:08.900 ,1,1,0.,24.0,0.,24.0,0.,24.0,0.,24.0
1979-08-05 10:50:32.900 ,2,1,0.,24.0,0.,24.0,0.,24.0,0.,24.0
1979-08-05 10:50:56.900 ,6,1,0.,24.0,0.,24.0,0.,24.0,0.,24.0
1979-08-05 10:51:20.900 ,5,1,17.,24.0,0.,24.0,0.,24.0,0.,24.0
1979-08-05 10:51:44.900 ,1,1,0.,24.0,0.,24.0,0.,24.0,0.,24.0
1979-08-05 10:52:08.900 ,2,1,1.,24.0,0.,24.0,0.,24.0,0.,24.0
1979-08-05 10:52:32.900 ,6,1,2.,24.0,0.,24.0,0.,24.0,0.,24.0
1979-08-05 10:52:56.900 ,5,1,12.,24.0,0.,24.0,0.,24.0,0.,24.0
1979-08-05 10:53:20.900 ,1,1,0.,24.0,0.,24.0,0.,24.0,0.,24.0
1979-08-05 10:53:44.900 ,0,0,0.,24.0,0.,24.0,0.,24.0,0.,24.0
1979-08-05 10:54:08.900 ,0,0,0.,24.0,0.,24.0,1.,24.0,0.,24.0
1979-08-05 10:54:32.900 ,5,1,17.,24.0,0.,24.0,0.,24.0,0.,24.0
1979-08-05 10:54:56.900 ,5,0,1.,24.0,1.,24.0,0.,24.0,0.,24.0
1979-08-05 10:55:20.900 ,4,1,0.,24.0,0.,24.0,0.,24.0,0.,24.0
1979-08-05 10:55:44.900 ,4,0,0.,24.0,0.,24.0,1.,24.0,0.,24.0
1979-08-05 10:56:08.900 ,3,1,0.,24.0,0.,24.0,0.,24.0,0.,24.0
1979-08-05 10:56:32.900 ,3,0,0.,24.0,0.,24.0,1.,24.0,0.,24.0
1979-08-05 10:56:56.900 ,2,1,0.,24.0,0.,24.0,0.,24.0,0.,24.0
1979-08-05 10:57:20.900 ,2,0,0.,24.0,0.,24.0,0.,24.0,0.,24.0
1979-08-05 10:57:44.900 ,1,1,0.,24.0,0.,24.0,0.,24.0,0.,24.0
1979-08-05 10:58:08.900 ,1,0,0.,24.0,1.,24.0,0.,24.0,0.,24.0
1979-08-05 10:58:32.900 ,0,1,0.,24.0,0.,24.0,0.,24.0,0.,24.0
1979-08-05 10:58:56.900 ,0,0,0.,24.0,0.,24.0,0.,24.0,0.,24.0
1979-08-05 10:59:20.900 ,0,1,0.,24.0,0.,24.0,0.,24.0,0.,24.0
1979-08-05 10:59:44.900 ,0,0,0.,24.0,0.,24.0,0.,24.0,0.,24.0
1979-08-05 11:00:08.900 ,1,1,0.,24.0,0.,24.0,2.,24.0,0.,24.0
1979-08-05 11:00:32.900 ,1,0,0.,24.0,0.,24.0,0.,24.0,0.,24.0
1979-08-05 11:00:56.900 ,2,1,0.,24.0,1.,24.0,0.,24.0,0.,24.0
1979-08-05 11:01:20.900 ,2,0,0.,24.0,0.,24.0,0.,24.0,0.,24.0
1979-08-05 11:01:44.900 ,3,1,0.,24.0,0.,24.0,0.,24.0,0.,24.0
1979-08-05 11:02:08.900 ,3,0,0.,24.0,0.,24.0,0.,24.0,0.,24.0
1979-08-05 11:02:32.900 ,4,1,0.,24.0,0.,24.0,0.,24.0,0.,24.0
1979-08-05 11:02:56.900 ,4,0,0.,24.0,0.,24.0,0.,24.0,0.,24.0
1979-08-05 11:03:20.900 ,5,1,1.,24.0,0.,24.0,0.,24.0,0.,24.0
1979-08-05 11:03:44.900 ,0,0,,0,,0,,0,,0
1979-08-05 11:06:59.900 ,0,0,0.,24.0,0.,24.0,0.,24.0,0.,24.0
1979-08-05 11:07:20.900 ,5,1,0.,24.0,0.,24.0,0.,24.0,0.,24.0
1979-08-05 11:07:44.900 ,5,0,0.,24.0,0.,24.0,1.,24.0,0.,24.0
1979-08-05 11:08:08.900 ,4,1,0.,24.0,0.,24.0,0.,24.0,0.,24.0
1979-08-05 11:08:32.900 ,4,0,0.,24.0,0.,24.0,0.,24.0,0.,24.0
1979-08-05 11:08:56.900 ,3,1,0.,24.0,0.,24.0,0.,24.0,0.,24.0
1979-08-05 11:09:20.900 ,3,0,0.,24.0,0.,24.0,0.,24.0,0.,24.0
1979-08-05 11:09:44.900 ,2,1,0.,24.0,0.,24.0,0.,24.0,0.,24.0
1979-08-05 11:10:08.900 ,2,0,0.,24.0,0.,24.0,0.,24.0,0.,24.0
1979-08-05 11:10:32.900 ,1,1,0.,24.0,0.,24.0,0.,24.0,0.,24.0
1979-08-05 11:10:56.900 ,1,0,0.,24.0,0.,24.0,0.,24.0,0.,24.0
1979-08-05 11:11:20.900 ,0,1,0.,24.0,0.,24.0,0.,24.0,0.,24.0
1979-08-05 11:11:44.900 ,0,0,0.,24.0,0.,24.0,0.,24.0,0.,24.0
1979-08-05 11:12:08.900 ,0,1,0.,24.0,0.,24.0,2.,24.0,0.,24.0
1979-08-05 11:12:32.900 ,0,0,0.,24.0,0.,24.0,0.,24.0,0.,24.0
1979-08-05 11:12:56.900 ,1,1,0.,24.0,0.,24.0,0.,24.0,0.,24.0
1979-08-05 11:13:20.900 ,1,0,0.,24.0,0.,24.0,0.,24.0,0.,24.0
1979-08-05 11:13:44.900 ,2,1,0.,24.0,0.,24.0,0.,24.0,0.,24.0
1979-08-05 11:14:08.900 ,2,0,0.,24.0,0.,24.0,0.,24.0,0.,24.0
1979-08-05 11:14:32.900 ,3,1,0.,24.0,0.,24.0,1.,24.0,0.,24.0
1979-08-05 11:14:56.900 ,3,0,0.,24.0,0.,24.0,0.,24.0,0.,24.0
1979-08-05 11:15:20.900 ,4,1,0.,24.0,0.,24.0,1.,24.0,0.,24.0
1979-08-05 11:15:44.900 ,4,0,0.,24.0,0.,24.0,0.,24.0,0.,24.0
1979-08-05 11:16:08.900 ,5,1,0.,24.0,0.,24.0,1.,24.0,0.,24.0
1979-08-05 11:16:32.900 ,5,0,0.,24.0,0.,24.0,0.,24.0,0.,24.0
1979-08-05 11:16:56.900 ,6,1,0.,24.0,0.,24.0,0.,24.0,0.,24.0
1979-08-05 11:17:20.900 ,6,0,0.,24.0,0.,24.0,0.,24.0,0.,24.0
1979-08-05 11:17:44.900 ,7,1,9.,24.0,0.,24.0,0.,24.0,0.,24.0
1979-08-05 11:18:08.900 ,7,0,40.,24.0,0.,24.0,0.,24.0,0.,24.0
1979-08-05 11:18:32.900 ,7,1,31.,24.0,0.,24.0,0.,24.0,0.,24.0
1979-08-05 11:18:56.900 ,7,0,33.,24.0,0.,24.0,0.,24.0,0.,24.0
1979-08-05 11:19:20.900 ,6,1,24.,24.0,0.,24.0,0.,24.0,0.,24.0
1979-08-05 11:19:44.900 ,6,0,0.,24.0,0.,24.0,0.,24.0,0.,24.0
1979-08-05 11:20:08.900 ,5,1,0.,24.0,0.,24.0,0.,24.0,0.,24.0
1979-08-05 11:20:32.900 ,5,0,0.,24.0,0.,24.0,0.,24.0,0.,24.0
1979-08-05 11:20:56.900 ,4,1,0.,24.0,0.,24.0,1.,24.0,0.,24.0
1979-08-05 11:21:20.900 ,4,0,0.,24.0,0.,24.0,1.,24.0,0.,24.0
1979-08-05 11:21:44.900 ,3,1,0.,24.0,0.,24.0,0.,24.0,0.,24.0
1979-08-05 11:22:08.900 ,3,0,0.,24.0,0.,24.0,0.,24.0,0.,24.0
1979-08-05 11:22:32.900 ,2,1,0.,24.0,0.,24.0,0.,24.0,0.,24.0
1979-08-05 11:22:56.900 ,2,0,0.,24.0,0.,24.0,0.,24.0,0.,24.0
1979-08-05 11:23:20.900 ,1,1,0.,24.0,0.,24.0,0.,24.0,0.,24.0
1979-08-05 11:23:44.900 ,1,0,0.,24.0,0.,24.0,0.,24.0,0.,24.0
1979-08-05 11:24:08.900 ,0,1,0.,24.0,0.,24.0,0.,24.0,0.,24.0
1979-08-05 11:24:32.900 ,0,0,0.,24.0,0.,24.0,1.,24.0,0.,24.0
1979-08-05 11:24:56.900 ,0,1,0.,24.0,0.,24.0,0.,24.0,0.,24.0
1979-08-05 11:25:20.900 ,0,0,0.,24.0,0.,24.0,0.,24.0,0.,24.0
1979-08-05 11:25:44.900 ,1,1,0.,24.0,0.,24.0,0.,24.0,0.,24.0
1979-08-05 11:26:08.900 ,1,0,0.,24.0,0.,24.0,0.,24.0,0.,24.0
1979-08-05 11:26:32.900 ,2,1,0.,24.0,1.,24.0,0.,24.0,0.,24.0
1979-08-05 11:26:56.900 ,2,0,0.,24.0,0.,24.0,0.,24.0,0.,24.0
1979-08-05 11:27:20.900 ,3,1,0.,24.0,0.,24.0,0.,24.0,0.,24.0
1979-08-05 11:27:44.900 ,3,0,0.,24.0,0.,24.0,0.,24.0,0.,24.0
1979-08-05 11:28:08.900 ,4,1,0.,24.0,0.,24.0,0.,24.0,0.,24.0
1979-08-05 11:28:32.900 ,4,0,0.,24.0,0.,24.0,0.,24.0,0.,24.0
1979-08-05 11:28:56.900 ,5,1,0.,24.0,0.,24.0,0.,24.0,0.,24.0
1979-08-05 11:29:20.900 ,5,0,0.,24.0,0.,24.0,0.,24.0,0.,24.0
1979-08-05 11:29:44.900 ,6,1,0.,24.0,0.,24.0,0.,24.0,0.,24.0
1979-08-05 11:30:08.900 ,6,0,0.,24.0,0.,24.0,0.,24.0,0.,24.0
1979-08-05 11:30:32.900 ,7,0,9.,24.0,0.,24.0,1.,24.0,0.,24.0
1979-08-05 11:30:56.900 ,7,0,36.,24.0,0.,24.0,0.,24.0,0.,24.0
1979-08-05 11:31:20.900 ,5,1,20.,24.0,0.,24.0,0.,24.0,0.,24.0
1979-08-05 11:31:44.900 ,1,1,0.,24.0,0.,24.0,0.,24.0,0.,24.0
1979-08-05 11:32:08.900 ,2,1,0.,24.0,0.,24.0,0.,24.0,0.,24.0
1979-08-05 11:32:32.900 ,6,1,0.,24.0,0.,24.0,0.,24.0,0.,24.0
1979-08-05 11:32:56.900 ,5,1,19.,24.0,0.,24.0,0.,24.0,0.,24.0
1979-08-05 11:33:20.900 ,1,1,0.,24.0,0.,24.0,0.,24.0,0.,24.0
1979-08-05 11:33:44.900 ,2,1,1.,24.0,0.,24.0,0.,24.0,0.,24.0
1979-08-05 11:34:08.900 ,6,1,0.,24.0,0.,24.0,0.,24.0,0.,24.0
1979-08-05 11:34:32.900 ,5,1,14.,24.0,0.,24.0,0.,24.0,0.,24.0
1979-08-05 11:34:56.900 ,1,1,0.,24.0,0.,24.0,1.,24.0,0.,24.0
1979-08-05 11:35:20.900 ,2,1,0.,24.0,0.,24.0,0.,24.0,0.,24.0
1979-08-05 11:35:44.900 ,6,1,0.,24.0,0.,24.0,0.,24.0,0.,24.0
1979-08-05 11:36:08.900 ,5,1,18.,24.0,0.,24.0,2.,24.0,0.,24.0
1979-08-05 11:36:32.900 ,1,1,0.,24.0,0.,24.0,1.,24.0,0.,24.0
1979-08-05 11:36:56.900 ,2,1,0.,24.0,0.,24.0,0.,24.0,0.,24.0